Regional Weather Roundup
Issued by NWS

Home | Current Version | Previous Version | Text Only | Print | Product List | Glossary On
Versions: 1 2 3 4 5 6 7 8 9 10 11 12 13 14 15 16 17 18 19 20 21 22 23 24 25 26 27 28 29 30 31 32 33 34 35 36 37 38 39 40 41 42 43 44 45 46 47 48 49 50
000
ASUS43 KDMX 210901
RWRIA

WEATHER ROUNDUP FOR IOWA
NATIONAL WEATHER SERVICE DES MOINES IA
400 AM CDT FRI JUL 21 2017

NOTE: "FAIR" INDICATES FEW OR NO CLOUDS BELOW 12,000 FEET WITH NO
SIGNIFICANT WEATHER AND/OR OBSTRUCTIONS TO VISIBILITY.

* - THESE STATIONS ARE NOT NWS STATIONS...THUS NOT UNDER NWS
QUALITY CONTROL.  THEY ALSO DO NOT REPORT WEATHER SUCH
AS PRECIPITATION OR FOG.

IAZ001>003-012>014-020>022-031>034-043>046-211000-
   NORTHWEST IOWA

CITY           SKY/WX    TMP DP  RH WIND       PRES   REMARKS
CARROLL *      PTCLDY    72  72 100 SE6       29.90F
CHEROKEE *     CLOUDY    72  68  86 SE5       29.88F
DENISON *      CLOUDY    73  72  94 VRB3      29.90F
ORANGE CITY *  CLOUDY    73  68  83 E7        29.87F
SHELDON *      MOCLDY    73  68  83 E8        29.87F
SIOUX CITY     CLOUDY    75  71  87 SE7       29.83F
SPENCER        CLOUDY    74  68  81 SE9       29.90F
STORM LAKE *   PTCLDY    72  66  83 E8        29.91F
$$

IAZ055>058-069>071-079>083-090>094-211000-
   SOUTHWEST IOWA

CITY           SKY/WX    TMP DP  RH WIND       PRES   REMARKS
ATLANTIC *     CLOUDY    79  73  83 CALM      29.90F HX  82
AUDUBON *      CLOUDY    73  72  94 CALM      29.92F
CLARINDA *       N/A     79  75  89 S7        29.92F HX  82
COUNCIL BLFS * CLOUDY    84  73  70 S10       29.88F HX  91
CRESTON *      CLOUDY    79  75  89 S7        29.94F HX  82
HARLAN  *      CLOUDY    75  75 100 CALM      29.92F
LAMONI         CLOUDY    80  77  90 S5        29.93F HX  87
RED OAK *      CLOUDY    81  75  83 CALM      29.90F HX  86
SHENANDOAH *   MOCLDY    79  73  83 SW3       29.90F HX  82
$$

IAZ047>049-059>061-072>074-084-211000-
   CENTRAL IOWA

CITY           SKY/WX    TMP DP  RH WIND       PRES   REMARKS
AMES           MOCLDY    72  72 100 SE5       29.92F
ANKENY *       CLOUDY    73  72  94 CALM      29.93S
BOONE *        MOCLDY    72  70  94 E5        29.92F
CHARITON *     CLOUDY    79  75  89 SE6       29.93F HX  82
DES MOINES     CLOUDY    76  72  87 SE6       29.91F
GRINNELL*      CLOUDY    72  69  89 SE7       29.96S
KNOXVILLE *    CLOUDY    75  68  78 SE7       29.92F
MARSHALLTOWN   CLOUDY    72  71  97 SE3       29.92F
NEWTON *       CLOUDY    73  70  88 SE7       29.94F
$$

IAZ004>006-015-016-023>025-035-036-211000-
   NORTH CENTRAL IOWA

CITY           SKY/WX    TMP DP  RH WIND       PRES   REMARKS
ALGONA *       CLOUDY    75  72  88 SE8       29.92F
CLARION *      CLOUDY    72  72 100 E5        29.92F
ESTHERVILLE    MOCLDY    73  72  96 SE9       29.90F
FORT DODGE *   CLOUDY    72  70  94 SE3       29.92F
MASON CITY     CLOUDY    70  69  97 E5        29.95F
FOREST CITY *    N/A     72  70  94 E5        29.93F
WEBSTER CITY * MOCLDY    72  70  94 SE3       29.90F
IOWA FALLS *     N/A     72  70  94 CALM      29.94F
$$

IAZ007>011-017>019-026>030-037>042-050>054-066-211000-
   NORTHEAST IOWA

CITY           SKY/WX    TMP DP  RH WIND       PRES   REMARKS
CEDAR RAPIDS   CLOUDY    71  71 100 CALM      29.93F
CHARLES CITY * CLOUDY    72  72 100 E5        29.95F
CLINTON *      LGT RAIN  71  70  96 N7        29.99
DECORAH *      CLOUDY    70  68  94 CALM      29.95F
DUBUQUE        CLOUDY    71  68  90 S8        29.98R
MONTICELLO *   CLOUDY    72  70  94 CALM      29.95S
OELWEIN *      CLOUDY    70  70 100 CALM      29.96F FOG
WATERLOO       CLOUDY    72  68  87 E3        29.93S
$$

IAZ064-065-067-068-078-211000-
   EAST CENTRAL IOWA

CITY           SKY/WX    TMP DP  RH WIND       PRES   REMARKS
DAVENPORT      LGT RAIN  72  70  93 NE3       29.97S
IOWA CITY      LGT RAIN  73  71  93 CALM      29.94F
MUSCATINE *    CLOUDY    73  72  94 SE7       29.93F
QUAD CITIES    LGT RAIN  73  71  93 CALM      29.94S
$$

IAZ062-063-075>077-085>089-095>099-211000-
   SOUTHEAST IOWA

CITY           SKY/WX    TMP DP  RH WIND       PRES   REMARKS
BURLINGTON     CLOUDY    77  71  82 NE5       29.96S
FAIRFIELD *    CLOUDY    72  70  94 SE5       29.95F
FORT MADISON * CLOUDY    75  72  88 NE5       29.97S
KEOKUK *       MOCLDY    77  72  83 NE5G12    29.96S
OSKALOOSA *      N/A     73  70  91 SE3       29.95F
OTTUMWA        MOCLDY    74  71  91 SE8       29.93F
WASHINGTON *   CLOUDY    72  72 100 CALM      29.96S
$$

ABBREVIATIONS USED IN REMARKS
   TC - TEMPERATURES IN CELSIUS
  WCI - WIND CHILL INDEX
   HX - HEAT INDEX
  VSB - VISIBILITY
$$





USA.gov is the U.S. government's official web portal to all federal, state and local government web resources and services.